This is the latest recevied weather packets stored in our database for station/object VA3BOO. If no packets are shown the sender has not sent any weather packets the latest 10 day(s).
| Time | Temp. | Humidity | Pressure | Rain* | Wind** | Luminosity | Snow |
|---|---|---|---|---|---|---|---|
| 1777862105 | 7.78° C | 75% | 1008 hPa | 0 mm | - | 0 W/m² | - |
| 1777861805 | 7.78° C | 75% | 1007.9 hPa | 0 mm | - | 0 W/m² | - |
| 1777861505 | 7.78° C | 73% | 1007.9 hPa | 0 mm | - | 0 W/m² | - |
| 1777861205 | 7.78° C | 74% | 1008.3 hPa | 0 mm | - | 0 W/m² | - |
| 1777860905 | 7.78° C | 75% | 1007.9 hPa | 0 mm | - | 0 W/m² | - |
| 1777860605 | 7.78° C | 76% | 1008.2 hPa | 0 mm | - | 0 W/m² | - |
| 1777860305 | 7.78° C | 75% | 1008.2 hPa | 0 mm | - | 0 W/m² | - |
| 1777860005 | 7.78° C | 76% | 1008.2 hPa | 0 mm | - | 0 W/m² | - |
| 1777859705 | 7.78° C | 79% | 1008.2 hPa | 0 mm | - | 0 W/m² | - |
| 1777859405 | 7.22° C | 80% | 1008.2 hPa | 0 mm | - | 0 W/m² | - |
| 1777859105 | 7.22° C | 80% | 1008.4 hPa | 0 mm | - | 0 W/m² | - |
| 1777858805 | 7.22° C | 79% | 1008.2 hPa | 0 mm | - | 0 W/m² | - |
| 1777858505 | 7.22° C | 80% | 1008 hPa | 0 mm | - | 0 W/m² | - |
| 1777858205 | 6.67° C | 80% | 1008 hPa | 0 mm | - | 0 W/m² | - |
| 1777857905 | 6.67° C | 80% | 1008.3 hPa | 0 mm | - | 0 W/m² | - |
| 1777857605 | 7.22° C | 79% | 1008 hPa | 0 mm | - | 0 W/m² | - |
| 1777857305 | 7.22° C | 77% | 1008.3 hPa | 0 mm | - | 0 W/m² | - |
| 1777857005 | 7.22° C | 78% | 1008.2 hPa | 0 mm | - | 0 W/m² | - |
| 1777856705 | 7.22° C | 75% | 1008 hPa | 0 mm | - | 0 W/m² | - |
| 1777856405 | 7.22° C | 76% | 1007.9 hPa | 0 mm | - | 0 W/m² | - |
| 1777856105 | 7.22° C | 76% | 1008.2 hPa | 0 mm | - | 0 W/m² | - |
| 1777855805 | 7.22° C | 75% | 1008.3 hPa | 0 mm | - | 0 W/m² | - |
| 1777855505 | 7.22° C | 74% | 1008 hPa | 0 mm | - | 0 W/m² | - |
| 1777855205 | 7.22° C | 74% | 1008 hPa | 0 mm | - | 0 W/m² | - |
| 1777854905 | 7.22° C | 74% | 1008.2 hPa | 0 mm | - | 0 W/m² | - |
* Rain latest hour (hover to see other rain measurements)
** Current wind speed in m/s (hover to see current wind gust speed)